Location: Newark
(33.6439°N, 114.9881°W)
Time: 14:04:03
(UTC+00:00)

A-11 Canister half - Pass Details

Date: 01 September 2019
Orbit: 1527 x 1682 km, 47.3° (Epoch: 22 October)

Event Time Altitude Azimuth Distance (km) Brightness Sun altitude
Rises 21:08:48 0° 301° (WNW) 4,884 11.7 57.3°
Reaches altitude 10° 21:12:10 10° 307° (NW) 3,912 11.3 56.8°
Maximum altitude 21:21:46 46° 19° (NNE) 2,141 10.0 55.3°
Drops below altitude 10° 21:31:24 10° 91° (E) 3,938 11.0 53.8°
Sets 21:34:47 0° 97° (E) 4,918 11.4 53.2°
